Weather History for KTIP - January, 2014

Change the Weather History Date:

Friday, January 10, 2014

  Actual Average (KCMI) Record (KCMI)
Temperature  
Mean Temperature 36 °F 25 °F  
Max Temperature 41 °F 33 °F 56 °F (2012)
Min Temperature 32 °F 17 °F - (1997)
Degree Days  
Heating Degree Days 28 40  
Month to date heating degree days 396  
Since 1 July heating degree days 2677  
Cooling Degree Days 0 0  
Month to date cooling degree days 0  
Year to date cooling degree days 0  
Moisture  
Dew Point 35 °F    
Average Humidity 93    
Maximum Humidity 95    
Minimum Humidity 91    
Precipitation  
Precipitation 0.44 in 0.07 in 1.04 in (1949)
Month to date precipitation 0.83  
Year to date precipitation 0.83  
Sea Level Pressure  
Sea Level Pressure 29.89 in    
Wind  
Wind Speed 7 mph (SSE)    
Max Wind Speed 18 mph    
Max Gust Speed 22 mph    
Visibility 3 miles    
Events Fog , Rain    
T = Trace of Precipitation, MM = Missing Value Source: NWS Daily Summary

Daily Weather History Graph

Daily Weather History Graph

Search for Another Location

Airport or City:

Trip Planner

Search our weather history database for the weather conditions in past years. The results will help you decide how hot, cold, wet, or windy it might be!

Date:

Astronomy

Jan. 10, 2014 Rise Set
Actual Time 7:14 AM CST 4:45 PM CST
Civil Twilight 6:44 AM CST 5:15 PM CST
Nautical Twilight 6:10 AM CST 5:49 PM CST
Astronomical Twilight 5:38 AM CST 6:22 PM CST
Moon 12:49 PM CST (1/10) 2:21 AM CST (1/10)
Length of Visible Light 10h 31m
Length of Day
9h 30m
Waxing Gibbous, 75% of the Moon is Illuminated
Jan 10
Waxing Gibbous
Jan 15
Full
Jan 23
Last Quarter
Jan 30
New
Feb 6
First Quarter

Hourly Weather History & Observations

Time (CST) Temp. Windchill Dew Point Humidity Pressure Visibility Wind Dir Wind Speed Gust Speed Precip Events Conditions
12:15 AM 32.9 °F 25.3 °F 31.5 °F 94% 30.16 in 7.0 mi South 9.2 mph - N/A   Overcast
12:35 AM 32.9 °F - 31.5 °F 94% 30.15 in 7.0 mi Calm Calm - N/A   Overcast
12:55 AM 32.9 °F 24.7 °F 31.5 °F 94% 30.15 in 5.0 mi South 10.4 mph - N/A   Overcast
1:15 AM 32.9 °F - 31.6 °F 95% 30.15 in 7.0 mi Calm Calm - N/A   Overcast
1:35 AM 33.1 °F - 31.6 °F 94% 30.15 in 7.0 mi Calm Calm - N/A   Overcast
1:55 AM 33.3 °F - 31.8 °F 94% 30.15 in 4.0 mi Calm Calm - N/A   Overcast
2:15 AM 33.4 °F 25.9 °F 32.0 °F 94% 30.14 in 3.0 mi South 9.2 mph - N/A   Overcast
2:35 AM 33.4 °F - 32.0 °F 94% 30.14 in 2.0 mi Calm Calm - N/A   Overcast
2:55 AM 33.8 °F - 32.0 °F 93% 30.13 in 1.8 mi Calm Calm - N/A   Overcast
3:15 AM 33.8 °F - 32.0 °F 93% 30.13 in 1.5 mi Calm Calm - N/A   Overcast
3:35 AM 33.8 °F 27.0 °F 32.2 °F 94% 30.12 in 1.5 mi South 8.1 mph - N/A   Overcast
3:55 AM 33.8 °F 25.8 °F 32.2 °F 94% 30.11 in 1.2 mi South 10.4 mph - N/A   Overcast
4:15 AM 33.8 °F 26.4 °F 32.2 °F 94% 30.11 in 1.0 mi South 9.2 mph - N/A   Overcast
4:35 AM 33.8 °F 24.8 °F 32.0 °F 93% 30.10 in 3.0 mi South 12.7 mph - N/A   Overcast
4:55 AM 33.8 °F 25.3 °F 32.0 °F 93% 30.09 in 5.0 mi South 11.5 mph - N/A   Overcast
5:15 AM 33.8 °F - 32.0 °F 93% 30.09 in 7.0 mi Calm Calm - N/A   Overcast
5:35 AM 33.8 °F - 32.0 °F 93% 30.09 in 7.0 mi Calm Calm - N/A   Mostly Cloudy
5:55 AM 33.8 °F 29.6 °F 32.0 °F 93% 30.09 in 7.0 mi South 4.6 mph - N/A   Overcast
6:15 AM 33.8 °F - 32.0 °F 93% 30.08 in 5.0 mi Calm Calm - N/A   Mostly Cloudy
6:35 AM 33.8 °F - 32.0 °F 93% 30.09 in 7.0 mi Calm Calm - N/A   Scattered Clouds
6:55 AM 33.8 °F 29.6 °F 32.0 °F 93% 30.08 in 7.0 mi SSE 4.6 mph - N/A   Clear
7:15 AM 34.0 °F - 32.0 °F 92% 30.07 in 7.0 mi Calm Calm - N/A   Clear
7:35 AM 34.0 °F - 32.0 °F 92% 30.06 in 7.0 mi Calm Calm - N/A   Clear
7:55 AM 34.2 °F - 32.0 °F 92% 30.07 in 7.0 mi Calm Calm - N/A   Clear
8:15 AM 34.3 °F - 32.0 °F 91% 30.06 in 3.0 mi Calm Calm - N/A   Mist
8:35 AM 34.3 °F - 32.2 °F 92% 30.06 in 1.0 mi Calm Calm - N/A   Overcast
8:55 AM 34.7 °F 27.5 °F 32.9 °F 93% 30.06 in 1.0 mi SSE 9.2 mph - N/A   Overcast
9:15 AM 34.7 °F 26.9 °F 32.9 °F 93% 30.05 in 1.2 mi SSE 10.4 mph - N/A   Light Drizzle
9:35 AM 34.9 °F 27.1 °F 33.1 °F 93% 30.04 in 0.8 mi SSE 10.4 mph - N/A   Overcast
9:55 AM 35.1 °F - 33.3 °F 93% 30.04 in 0.8 mi Calm Calm - N/A   Overcast
10:15 AM 35.6 °F - 33.8 °F 93% 30.01 in 1.2 mi Calm Calm - N/A   Overcast
10:35 AM 35.6 °F - 33.8 °F 93% 30.01 in 3.0 mi Calm Calm - N/A   Mist
10:55 AM 36.0 °F 27.5 °F 33.8 °F 92% 29.98 in 4.0 mi SSE 12.7 mph - N/A Rain Light Rain
11:15 AM 36.1 °F 28.2 °F 33.8 °F 91% 29.96 in 1.5 mi SSE 11.5 mph - N/A Rain Light Rain
11:35 AM 36.3 °F 28.0 °F 34.0 °F 91% 29.94 in 1.8 mi SSE 12.7 mph - N/A   Scattered Clouds
11:55 AM 36.5 °F 28.7 °F 34.2 °F 91% 29.91 in 1.8 mi SSE 11.5 mph - N/A Rain Rain
12:15 PM 36.5 °F 29.2 °F 34.7 °F 93% 29.88 in 2.0 mi SE 10.4 mph - N/A   Mist
12:35 PM 36.7 °F 28.9 °F 34.7 °F 93% 29.86 in 2.0 mi SSE 11.5 mph - N/A   Overcast
12:55 PM 36.7 °F 29.4 °F 34.7 °F 93% 29.84 in 1.8 mi SSE 10.4 mph - N/A   Overcast
1:15 PM 36.7 °F - 34.7 °F 93% 29.82 in 1.5 mi Calm Calm - N/A Rain Rain
1:35 PM 37.4 °F 29.3 °F 35.6 °F 93% 29.83 in 1.5 mi SSE 12.7 mph - 0.05 in Rain Heavy Rain
1:55 PM 37.9 °F 29.6 °F 36.0 °F 93% 29.81 in 1.5 mi South 13.8 mph - 0.09 in Rain Rain
2:15 PM 38.3 °F 29.7 °F 36.5 °F 93% 29.80 in 1.8 mi South 15.0 mph - 0.03 in Rain Light Rain
2:35 PM 38.5 °F 30.3 °F 36.5 °F 93% 29.80 in 1.5 mi South 13.8 mph - 0.04 in Rain Light Rain
2:55 PM 38.7 °F 29.8 °F 36.9 °F 93% 29.79 in 1.2 mi South 16.1 mph - 0.05 in Rain Rain
3:15 PM 38.8 °F 29.4 °F 37.0 °F 93% 29.79 in 1.5 mi South 18.4 mph 21.9 mph 0.04 in Rain Rain
3:35 PM 38.7 °F 29.8 °F 36.9 °F 93% 29.79 in 1.5 mi South 16.1 mph - 0.06 in Rain Light Rain
3:55 PM 38.8 °F 30.0 °F 37.0 °F 93% 29.78 in 1.2 mi South 16.1 mph - 0.10 in Rain Rain
4:15 PM 39.2 °F 30.8 °F 37.4 °F 93% 29.76 in 1.8 mi SSE 15.0 mph - 0.02 in Rain Light Rain
4:35 PM 39.4 °F 31.4 °F 37.6 °F 93% 29.75 in 1.5 mi SSE 13.8 mph - 0.04 in Rain Rain
4:55 PM 39.4 °F 30.7 °F 37.6 °F 93% 29.74 in 2.5 mi SSE 16.1 mph - 0.06 in Rain Light Rain
5:15 PM 39.4 °F 30.7 °F 37.6 °F 93% 29.73 in 2.0 mi SSE 16.1 mph - 0.01 in Rain Light Rain
5:35 PM 39.4 °F 30.7 °F 37.6 °F 93% 29.71 in 2.0 mi SSE 16.1 mph - 0.04 in Rain Rain
5:55 PM 39.7 °F 31.2 °F 37.9 °F 93% 29.69 in 2.0 mi SSE 16.1 mph - 0.06 in Rain Light Rain
6:15 PM 39.4 °F 31.1 °F 37.6 °F 93% 29.69 in 1.8 mi SSE 15.0 mph - N/A Rain Light Rain
6:35 PM 40.1 °F 31.6 °F 38.3 °F 93% 29.68 in 3.0 mi SSE 16.1 mph - 0.02 in Rain Rain
6:55 PM 40.1 °F 32.0 °F 38.3 °F 93% 29.66 in 3.0 mi SSE 15.0 mph - 0.04 in Rain Rain
7:15 PM 40.1 °F 31.6 °F 38.5 °F 94% 29.65 in 2.0 mi South 16.1 mph - 0.02 in Rain Rain
7:35 PM 40.5 °F 32.8 °F 39.0 °F 95% 29.68 in 4.0 mi SSW 13.8 mph 18.4 mph 0.04 in Rain Rain
7:55 PM 39.7 °F 31.9 °F 38.3 °F 95% 29.65 in 7.0 mi South 13.8 mph - 0.04 in Rain Light Rain
8:15 PM 40.1 °F 31.6 °F 38.5 °F 94% 29.65 in 5.0 mi South 16.1 mph - N/A Rain Light Rain
8:35 PM 39.9 °F 31.8 °F 38.3 °F 94% 29.64 in 2.5 mi South 15.0 mph - N/A Rain Light Rain
8:55 PM 39.7 °F 32.7 °F 38.3 °F 95% 29.63 in 2.0 mi South 11.5 mph - N/A Rain Rain
9:15 PM 39.6 °F 33.5 °F 37.9 °F 94% 29.62 in 2.0 mi SSE 9.2 mph - N/A   Overcast
9:35 PM 40.1 °F 33.6 °F 38.5 °F 94% 29.61 in 4.0 mi South 10.4 mph - N/A   Overcast
9:55 PM 40.1 °F - 38.3 °F 93% 29.59 in 1.5 mi Calm Calm - N/A   Overcast
10:15 PM 39.2 °F - 37.6 °F 94% 29.60 in 0.5 mi Calm Calm - N/A Fog Fog
10:35 PM 39.9 °F - 38.3 °F 94% 29.60 in 0.8 mi Calm Calm - N/A Rain Light Rain
10:55 PM 41.2 °F 38.2 °F 39.6 °F 94% 29.60 in 2.0 mi SSW 4.6 mph - N/A   Overcast
11:15 PM 40.6 °F - 39.0 °F 94% 29.58 in 1.0 mi Calm Calm - N/A   Overcast
11:35 PM 39.0 °F - 37.4 °F 94% 29.58 in 0.2 mi Calm Calm - N/A Fog Fog
11:55 PM 40.1 °F - 38.3 °F 93% 29.56 in 0.2 mi Calm Calm - N/A   Light Drizzle